Location: Festilli
(46.4000°N, 11.6667°E)
Time: 14:52:45
(UTC+00:00)

Cosmos 1354 Rocket - Pass Details

Date: 03 March 2021
Orbit: 765 x 782 km, 74.0° (Epoch: 19 April)

Event Time Altitude Azimuth Distance (km) Brightness Sun altitude
Rises 18:19:13 0° 338° (NNW) 3,250 7.6 -14.0°
Reaches altitude 10° 18:21:36 10° 339° (NNW) 2,318 6.8 -14.4°
Maximum altitude 18:26:52 85° 67° (ENE) 776 3.9 -15.3°
Drops below altitude 10° 18:32:06 10° 158° (SSE) 2,296 6.2 -16.2°
Enters shadow 18:33:32 - 158° (SSE) 2,853 6.7 -16.5°
